Home   Weather   Russia   Nizhnevartovsk   Past weeks
Flag for Russia

Past Weather in Nizhnevartovsk, Russia — Yesterday and Last 2 Weeks

Currently: -11 °F. Clear. (Weather station: Nizhnevartovsk, Russia). See more current weather

Past Weather in Nizhnevartovsk — Graph

°F

Nizhnevartovsk Temperature Yesterday

Maximum temperature yesterday: -8 °F (at 1:00 pm)
Minimum temperature yesterday: -22 °F (at 3:30 am)
Average temperature yesterday: -12 °F

High & Low Weather Summary for the Past Weeks

 TemperatureHumidityPressure
High18 °F (Nov 21, 11:30 pm)100% (Nov 21, 10:30 pm)30.98 "Hg (Nov 21, 10:30 pm)
Low-33 °F (Nov 25, 9:00 am)61% (Nov 18, 1:30 pm)29.45 "Hg (Nov 22, 2:30 am)
Average-10 °F76%30.35 "Hg
* Reported Nov 16 4:00 am — Dec 1 4:00 am, Nizhnevartovsk. Weather by CustomWeather, © 2022

Note: Actual official high and low records may vary slightly from our data, if they occured in-between our weather recording intervals... More about our weather records

Nizhnevartovsk Weather History for the Previous 24 Hours

Scroll right to see more
 ConditionsComfort  
Time TempWeatherWind HumidityBarometerVisibility
4:00 am
Thu, Dec 1
-11 °FClear.1 mph76%30.92 "Hg10 mi
3:30 am-11 °FClear.1 mph76%30.92 "Hg10 mi
3:00 am-9 °FClear.1 mph77%30.92 "Hg10 mi
2:30 am-9 °FClear.3 mph77%30.92 "Hg10 mi
2:00 am-9 °FClear.1 mph77%30.92 "Hg10 mi
1:30 am-9 °FClear.1 mph77%30.92 "Hg10 mi
1:00 am-9 °FClear.1 mph84%30.92 "Hg10 mi
12:30 am-8 °FClear.1 mph77%30.92 "Hg10 mi
12:00 am-9 °FClear.1 mph77%30.92 "Hg10 mi
11:30 pm
Wed, Nov 30
-9 °FClear.1 mph77%30.92 "Hg10 mi
11:00 pm-9 °FClear.3 mph77%30.92 "Hg10 mi
10:30 pm-9 °FPassing clouds.3 mph77%30.92 "HgN/A
10:00 pm-9 °FClear.1 mph77%30.92 "Hg10 mi
9:30 pm-9 °FClear.1 mph77%30.92 "Hg10 mi
9:00 pm-9 °FClear.1 mph77%30.92 "Hg10 mi
8:30 pm-9 °FClear.3 mph77%30.92 "Hg10 mi
8:00 pm-9 °FClear.3 mph77%30.92 "Hg10 mi
7:30 pm-8 °FClear.3 mph77%30.92 "Hg10 mi
7:00 pm-8 °FClear.3 mph77%30.92 "Hg10 mi
6:30 pm-8 °FClear.3 mph77%30.92 "Hg10 mi
6:00 pm-8 °FClear.3 mph77%30.92 "Hg10 mi
5:30 pm-8 °FClear.3 mph77%30.92 "Hg10 mi
5:00 pm-8 °FClear.3 mph77%30.92 "Hg10 mi
4:30 pm-8 °FClear.3 mph77%30.92 "Hg10 mi
4:00 pm-8 °FClear.3 mph77%30.92 "Hg10 mi
3:30 pm-8 °FClear.3 mph77%30.92 "Hg10 mi
3:00 pm-8 °FClear.3 mph77%30.92 "Hg10 mi
2:30 pm-8 °FPassing clouds.3 mph77%30.92 "HgN/A
2:00 pm-9 °FSunny.3 mph84%30.92 "Hg10 mi
1:00 pm-8 °FSunny.1 mph77%30.92 "Hg10 mi
12:30 pm-9 °FSunny.No wind77%30.92 "Hg10 mi
12:00 pm-9 °FSunny.1 mph77%30.89 "Hg10 mi
11:00 am-9 °FSunny.1 mph77%30.89 "Hg10 mi
10:30 am-9 °FSunny.1 mph77%30.89 "Hg10 mi
10:00 am-9 °FSunny.1 mph77%30.89 "Hg10 mi
9:30 am-9 °FSunny.3 mph77%30.89 "Hg10 mi
9:00 am-13 °FSunny.3 mph83%30.89 "Hg10 mi
8:30 am-13 °FClear.1 mph76%30.89 "Hg10 mi
8:00 am-15 °FClear.No wind76%30.89 "Hg10 mi
7:30 am-17 °FClear.1 mph76%30.89 "Hg10 mi
7:00 am-18 °FClear.No wind75%30.89 "Hg10 mi
6:30 am-20 °FClear.1 mph75%30.89 "Hg10 mi
6:00 am-20 °FClear.No wind75%30.89 "Hg10 mi
Weather by CustomWeather, © 2022

See weather overview